Hispasat 1D

operational
NORAD ID: 27528 Int'l Des: 2002-044 Owner: HISP Country: E
HEOCIRCULAR

关于 Hispasat 1D

正在加载描述...

实时位置

正在加载3D地球...

即将过境

高度历史

Altitude vs Time

uPlot chart will show altitude changes over time

两行轨道根数

1 27528U 02044A 26062.03517021 -.00000060 00000-0 00000+0 0 9995
2 27528 6.2837 71.8935 0046803 143.3984 54.6378 0.98926852 85698
Epoch: Mar 3, 2026 • Age: 12 hours

当前状态

高度 36305.8 km
速度 3.05 km/s
星下点 0.93°N, 93.71°E
发射日期 Sep 18, 2002
运行时间 23.4 years
类型 other

技术详情

分类 Payload
质量 3250.00 kg
干质量 1500.00 kg
总质量 3250.00 kg
长度 4.20 m
直径 2.50 m
跨度 29.00 m
形状 Box + 2 Pan
制造商 ALC
平台类型 Spacebus 3000B2
阶段状态 Renamed
所有者/国家 HISP/E

大型星座

Loading constellations...